| time (UTC) | temp F | wind direction | speed MPH | gust MPH | rain 1hr in | rain 24hr in | rain mn in | humidity % | barometer mb |
| 20260904044522 | 75 | 360 | 0.0 | 0.0 | 0.00 | 0.30 | 0.00 | 98 | 1012.6 |
| 20260904043032 | 75 | 360 | 0.0 | 0.0 | 0.00 | 0.30 | 0.00 | 98 | 1012.6 |
| 20260904041521 | 75 | 360 | 0.0 | 0.0 | 0.00 | 0.30 | 0.00 | 98 | 1012.6 |
| 20260904040029 | 75 | 360 | 0.0 | 0.0 | 0.00 | 0.30 | 0.30 | 97 | 1012.6 |
| 20260904034522 | 75 | 360 | 0.0 | 0.0 | 0.00 | 0.30 | 0.30 | 97 | 1012.5 |
| 20260904033024 | 75 | 360 | 0.0 | 0.0 | 0.00 | 0.30 | 0.30 | 97 | 1012.6 |
| 20260904031531 | 75 | 360 | 0.0 | 0.0 | 0.00 | 0.30 | 0.30 | 97 | 1012.7 |
| 20260904030027 | 75 | 360 | 0.0 | 0.0 | 0.00 | 0.30 | 0.30 | 97 | 1012.5 |
| 20260904024527 | 75 | 360 | 0.0 | 0.0 | 0.00 | 0.30 | 0.30 | 97 | 1012.6 |
| 20260904023032 | 75 | 360 | 0.0 | 0.0 | 0.00 | 0.30 | 0.30 | 97 | 1012.6 |
| 20260904021533 | 75 | 360 | 0.0 | 0.0 | 0.00 | 0.30 | 0.30 | 97 | 1012.4 |
| 20260904020033 | 75 | 360 | 0.0 | 0.0 | 0.00 | 0.30 | 0.30 | 97 | 1012.2 |
| 20260904014535 | 75 | 360 | 0.0 | 0.0 | 0.00 | 0.30 | 0.30 | 96 | 1012.2 |
| 20260904013046 | 75 | 360 | 0.0 | 0.0 | 0.00 | 0.30 | 0.30 | 96 | 1012.1 |
| 20260904011547 | 75 | 360 | 0.0 | 0.0 | 0.00 | 0.30 | 0.30 | 96 | 1012.0 |
| 20260904010046 | 75 | 360 | 0.0 | 0.0 | 0.00 | 0.30 | 0.30 | 96 | 1012.0 |
| 20260904004508 | 75 | 360 | 0.0 | 0.0 | 0.00 | 0.30 | 0.30 | 96 | 1011.8 |
| 20260904003010 | 75 | 360 | 0.0 | 0.0 | 0.00 | 0.30 | 0.30 | 95 | 1011.6 |
| 20260904001514 | 75 | 360 | 0.0 | 0.0 | 0.01 | 0.30 | 0.30 | 95 | 1011.3 |
| 20260904000016 | 75 | 360 | 0.0 | 0.0 | 0.28 | 0.30 | 0.30 | 94 | 1010.9 |
| 20260903234518 | 75 | 360 | 0.0 | 0.0 | 0.30 | 0.30 | 0.30 | 93 | 1011.0 |
| 20260903233018 | 75 | 360 | 0.0 | 0.0 | 0.30 | 0.30 | 0.30 | 92 | 1011.4 |
| 20260903231528 | 77 | 355 | 0.0 | 0.0 | 0.28 | 0.28 | 0.28 | 88 | 1011.8 |
| 20260903230036 | 84 | 325 | 0.0 | 1.0 | 0.01 | 0.01 | 0.02 | 78 | 1011.5 |
| 20260903224534 | 85 | 96 | 0.0 | 0.0 | 0.00 | 0.00 | 0.00 | 74 | 1010.5 |
| 20260903223035 | 85 | 196 | 0.0 | 0.0 | 0.00 | 0.00 | 0.00 | 75 | 1010.3 |
| 20260903221540 | 86 | 196 | 0.0 | 0.0 | 0.00 | 0.00 | 0.00 | 74 | 1010.4 |
| 20260903220028 | 87 | 196 | 0.0 | 0.0 | 0.00 | 0.00 | 0.00 | 73 | 1010.3 |
| 20260903214531 | 87 | 196 | 0.0 | 0.0 | 0.00 | 0.00 | 0.00 | 72 | 1010.3 |
| 20260903213040 | 88 | 196 | 0.0 | 0.0 | 0.00 | 0.00 | 0.00 | 70 | 1010.3 |
| 20260903211534 | 89 | 196 | 0.0 | 0.0 | 0.00 | 0.00 | 0.00 | 65 | 1010.5 |
| 20260903210036 | 91 | 196 | 0.0 | 0.0 | 0.00 | 0.00 | 0.00 | 63 | 1010.6 |
| 20260903204542 | 94 | 199 | 0.0 | 0.0 | 0.00 | 0.00 | 0.00 | 55 | 1010.7 |
| 20260903203045 | 94 | 329 | 0.0 | 0.0 | 0.00 | 0.00 | 0.00 | 56 | 1010.7 |
| 20260903201556 | 94 | 34 | 0.0 | 0.0 | 0.00 | 0.00 | 0.00 | 55 | 1010.9 |
| 20260903200100 | 94 | 286 | 0.0 | 2.0 | 0.00 | 0.00 | 0.00 | 56 | 1011.2 |
| 20260903194600 | 92 | 213 | 0.0 | 0.0 | 0.00 | 0.00 | 0.00 | 59 | 1011.3 |
| 20260903194502 | 92 | 228 | 0.0 | 0.0 | 0.00 | 0.00 | 0.00 | 60 | 1011.3 |
| 20260903193004 | 92 | 279 | 0.0 | 0.0 | 0.00 | 0.00 | 0.00 | 64 | 1011.6 |
| 20260903191505 | 91 | 280 | 0.0 | 0.0 | 0.00 | 0.00 | 0.00 | 63 | 1011.9 |
| 20260903190006 | 93 | 184 | 0.0 | 0.0 | 0.00 | 0.00 | 0.00 | 58 | 1012.0 |
| 20260903184508 | 93 | 355 | 0.0 | 0.0 | 0.00 | 0.00 | 0.00 | 59 | 1012.0 |
| 20260903183011 | 93 | 346 | 0.0 | 0.0 | 0.00 | 0.00 | 0.00 | 58 | 1012.2 |
| 20260903181509 | 94 | 332 | 0.0 | 5.0 | 0.00 | 0.00 | 0.00 | 56 | 1012.4 |
| 20260903180018 | 94 | 355 | 0.0 | 0.0 | 0.00 | 0.00 | 0.00 | 56 | 1012.5 |
| 20260903174517 | 94 | 188 | 0.0 | 0.0 | 0.00 | 0.00 | 0.00 | 56 | 1012.6 |
| 20260903173056 | 93 | 104 | 0.0 | 0.0 | 0.00 | 0.00 | 0.00 | 61 | 1012.7 |
| 20260903171558 | 92 | 355 | 0.0 | 0.0 | 0.00 | 0.00 | 0.00 | 61 | 1013.0 |
| 20260903170106 | 92 | 335 | 0.0 | 0.0 | 0.00 | 0.00 | 0.00 | 62 | 1013.2 |
| 20260903170002 | 92 | 335 | 0.0 | 0.0 | 0.00 | 0.00 | 0.00 | 62 | 1013.2 |
| 20260903164602 | 92 | 350 | 0.0 | 0.0 | 0.00 | 0.00 | 0.00 | 61 | 1013.4 |
| 20260903164501 | 92 | 203 | 0.0 | 0.0 | 0.00 | 0.00 | 0.00 | 61 | 1013.4 |
| 20260903163003 | 91 | 315 | 0.0 | 0.0 | 0.00 | 0.00 | 0.00 | 66 | 1013.5 |
| 20260903161504 | 91 | 198 | 0.0 | 0.0 | 0.00 | 0.00 | 0.00 | 66 | 1013.7 |
| 20260903160007 | 92 | 198 | 0.0 | 0.0 | 0.00 | 0.00 | 0.00 | 62 | 1013.9 |
| 20260903154601 | 90 | 166 | 0.0 | 0.0 | 0.00 | 0.00 | 0.00 | 63 | 1013.9 |
| 20260903154505 | 90 | 166 | 0.0 | 0.0 | 0.00 | 0.00 | 0.00 | 65 | 1013.9 |
| 20260903153009 | 90 | 166 | 0.0 | 0.0 | 0.00 | 0.00 | 0.00 | 67 | 1013.9 |
| 20260903151509 | 88 | 166 | 0.0 | 0.0 | 0.00 | 0.00 | 0.00 | 71 | 1013.8 |
| 20260903150012 | 87 | 166 | 0.0 | 0.0 | 0.00 | 0.00 | 0.00 | 72 | 1013.9 |
| 20260903144517 | 87 | 166 | 0.0 | 0.0 | 0.00 | 0.00 | 0.00 | 73 | 1013.8 |
| 20260903143011 | 86 | 166 | 0.0 | 0.0 | 0.00 | 0.00 | 0.00 | 75 | 1013.8 |
| 20260903141513 | 85 | 166 | 0.0 | 0.0 | 0.00 | 0.00 | 0.00 | 78 | 1013.9 |
| 20260903140015 | 84 | 166 | 0.0 | 0.0 | 0.00 | 0.00 | 0.00 | 78 | 1014.0 |
| 20260903134510 | 82 | 166 | 0.0 | 0.0 | 0.00 | 0.00 | 0.00 | 81 | 1014.1 |
| 20260903133015 | 81 | 166 | 0.0 | 0.0 | 0.00 | 0.00 | 0.00 | 85 | 1014.1 |
| 20260903131515 | 79 | 166 | 0.0 | 0.0 | 0.00 | 0.00 | 0.00 | 87 | 1014.2 |
| 20260903130014 | 76 | 166 | 0.0 | 0.0 | 0.00 | 0.00 | 0.00 | 93 | 1014.2 |
| 20260903124517 | 75 | 166 | 0.0 | 0.0 | 0.00 | 0.00 | 0.00 | 95 | 1014.1 |
| 20260903123015 | 74 | 166 | 0.0 | 0.0 | 0.00 | 0.00 | 0.00 | 95 | 1014.1 |
| 20260903121519 | 73 | 166 | 0.0 | 0.0 | 0.00 | 0.00 | 0.00 | 95 | 1014.1 |
| 20260903120019 | 73 | 166 | 0.0 | 0.0 | 0.00 | 0.00 | 0.00 | 95 | 1013.9 |
| 20260903114521 | 73 | 166 | 0.0 | 0.0 | 0.00 | 0.00 | 0.00 | 94 | 1013.8 |
| 20260903113023 | 73 | 166 | 0.0 | 0.0 | 0.00 | 0.00 | 0.00 | 94 | 1013.5 |
| 20260903111532 | 73 | 166 | 0.0 | 0.0 | 0.00 | 0.00 | 0.00 | 94 | 1013.4 |
| 20260903110027 | 73 | 166 | 0.0 | 0.0 | 0.00 | 0.00 | 0.00 | 94 | 1013.3 |
| 20260903104528 | 73 | 166 | 0.0 | 0.0 | 0.00 | 0.00 | 0.00 | 94 | 1013.2 |
| 20260903103039 | 73 | 166 | 0.0 | 0.0 | 0.00 | 0.00 | 0.00 | 94 | 1013.1 |
| 20260903101534 | 74 | 166 | 0.0 | 0.0 | 0.00 | 0.00 | 0.00 | 94 | 1013.0 |
| 20260903100047 | 74 | 166 | 0.0 | 0.0 | 0.00 | 0.00 | 0.00 | 94 | 1012.9 |
| 20260903094549 | 74 | 166 | 0.0 | 0.0 | 0.00 | 0.00 | 0.00 | 94 | 1012.9 |
| 20260903093103 | 74 | 166 | 0.0 | 0.0 | 0.00 | 0.00 | 0.00 | 94 | 1012.8 |
| 20260903091503 | 74 | 166 | 0.0 | 0.0 | 0.00 | 0.00 | 0.00 | 94 | 1013.0 |
| 20260903090007 | 74 | 166 | 0.0 | 0.0 | 0.00 | 0.00 | 0.00 | 93 | 1013.2 |
| 20260903084513 | 74 | 166 | 0.0 | 0.0 | 0.00 | 0.00 | 0.00 | 93 | 1013.2 |
| 20260903083009 | 74 | 166 | 0.0 | 0.0 | 0.00 | 0.00 | 0.00 | 93 | 1013.1 |
| 20260903081518 | 75 | 166 | 0.0 | 0.0 | 0.00 | 0.00 | 0.00 | 93 | 1013.0 |
| 20260903080020 | 75 | 166 | 0.0 | 0.0 | 0.00 | 0.00 | 0.00 | 93 | 1012.8 |
| 20260903074522 | 75 | 166 | 0.0 | 0.0 | 0.00 | 0.00 | 0.00 | 92 | 1012.8 |
| 20260903073028 | 75 | 166 | 0.0 | 0.0 | 0.00 | 0.00 | 0.00 | 92 | 1012.8 |
| 20260903071531 | 75 | 166 | 0.0 | 0.0 | 0.00 | 0.00 | 0.00 | 92 | 1012.7 |
| 20260903070028 | 75 | 166 | 0.0 | 0.0 | 0.00 | 0.00 | 0.00 | 92 | 1012.7 |
| 20260903064530 | 76 | 166 | 0.0 | 0.0 | 0.00 | 0.00 | 0.00 | 91 | 1012.7 |
| 20260903063026 | 76 | 166 | 0.0 | 0.0 | 0.00 | 0.00 | 0.00 | 91 | 1012.8 |
| 20260903061529 | 76 | 166 | 0.0 | 0.0 | 0.00 | 0.00 | 0.00 | 91 | 1012.8 |
| 20260903060032 | 76 | 166 | 0.0 | 0.0 | 0.00 | 0.00 | 0.00 | 90 | 1012.9 |
| 20260903054534 | 76 | 163 | 0.0 | 0.0 | 0.00 | 0.00 | 0.00 | 90 | 1012.8 |
| 20260903053037 | 77 | 163 | 0.0 | 0.0 | 0.00 | 0.00 | 0.00 | 89 | 1012.9 |
| 20260903051534 | 77 | 163 | 0.0 | 0.0 | 0.00 | 0.00 | 0.00 | 89 | 1013.0 |
| 20260903050043 | 77 | 163 | 0.0 | 0.0 | 0.00 | 0.00 | 0.00 | 88 | 1013.1 |